Weather History for VDPP - September, 2013

Change the Weather History Date:

Wednesday, September 18, 2013

  Actual Average Record
Temperature  
Mean Temperature 82 °F -  
Max Temperature 87 °F 85 °F 93 °F (1999)
Min Temperature 76 °F 76 °F 75 °F (2008)
Cooling Degree Days 16    
Growing Degree Days 32 (Base 50)    
Moisture  
Dew Point 73 °F    
Average Humidity 75    
Maximum Humidity 100    
Minimum Humidity 62    
Precipitation  
Precipitation 0.00 in - - ()
Sea Level Pressure  
Sea Level Pressure 29.68 in    
Wind  
Wind Speed 6 mph ()    
Max Wind Speed 18 mph    
Max Gust Speed -    
Visibility 5.8 miles    
Events Rain    
Averages and records for this station are not official NWS values.
T = Trace of Precipitation, MM = Missing Value Source: Averaged Metar Reports

Daily Weather History Graph

Daily Weather History Graph

Search for Another Location

Airport or City:

Trip Planner

Search our weather history database for the weather conditions in past years. The results will help you decide how hot, cold, wet, or windy it might be!

Date:

Astronomy

Sep. 18, 2013 Rise Set
Actual Time 5:49 AM ICT 5:59 PM ICT
Civil Twilight 5:28 AM ICT 6:20 PM ICT
Nautical Twilight 5:04 AM ICT 6:45 PM ICT
Astronomical Twilight 4:39 AM ICT 7:09 PM ICT
Moon 5:00 PM ICT (9/18) 4:25 AM ICT (9/18)
Length of Visible Light 12h 51m
Length of Day
12h 09m
Waxing Gibbous, 98% of the Moon is Illuminated
Sep 18
Waxing Gibbous
Sep 19
Full
Sep 27
Last Quarter
Oct 5
New
Oct 12
First Quarter

Hourly Weather History & Observations

Time (ICT) Temp. Heat Index Dew Point Humidity Pressure Visibility Wind Dir Wind Speed Gust Speed Precip Events Conditions
12:00 AM 80.6 °F 84.6 °F 71.6 °F 74% 29.71 in 5.6 mi West 5.8 mph - N/A   Scattered Clouds
12:30 AM 80.6 °F 84.6 °F 71.6 °F 74% 29.71 in 5.6 mi West 5.8 mph - N/A   Scattered Clouds
1:00 AM 80.6 °F 84.6 °F 71.6 °F 74% 29.68 in 5.6 mi WSW 6.9 mph - N/A   Scattered Clouds
6:00 AM 80.6 °F 84.6 °F 71.6 °F 74% 29.68 in 5.6 mi West 5.8 mph - N/A   Scattered Clouds
6:30 AM 80.6 °F 84.6 °F 71.6 °F 74% 29.68 in 5.6 mi West 4.6 mph - N/A   Scattered Clouds
7:00 AM 79 °F - 79 °F 100% 29.76 in 6 mi West 4.5 mph - -   Overcast
7:00 AM 80.6 °F 83.9 °F 69.8 °F 70% 29.68 in 5.6 mi WSW 5.8 mph - N/A   Scattered Clouds
7:30 AM 80.6 °F 84.6 °F 71.6 °F 74% 29.71 in 5.6 mi NNW 4.6 mph - N/A   Scattered Clouds
8:00 AM 80.6 °F 84.6 °F 71.6 °F 74% 29.71 in 6.2 mi NNW 3.5 mph - N/A   Mostly Cloudy
8:30 AM 80.6 °F 84.6 °F 71.6 °F 74% 29.74 in 6.2 mi West 3.5 mph - N/A   Mostly Cloudy
9:00 AM 82.4 °F 87.2 °F 71.6 °F 70% 29.74 in 6.2 mi West 4.6 mph - N/A   Mostly Cloudy
9:30 AM 82.4 °F 87.2 °F 71.6 °F 70% 29.74 in 6.2 mi West 4.6 mph - N/A   Mostly Cloudy
10:00 AM 84.2 °F 90.9 °F 73.4 °F 70% 29.74 in 6.2 mi West 6.9 mph - N/A   Mostly Cloudy
10:30 AM 84.2 °F 89.6 °F 71.6 °F 66% 29.74 in 6.2 mi West 9.2 mph - N/A   Mostly Cloudy
11:00 AM 84.2 °F 90.9 °F 73.4 °F 70% 29.74 in 6.2 mi West 8.1 mph - N/A   Mostly Cloudy
11:30 AM 86.0 °F 93.4 °F 73.4 °F 66% 29.71 in 6.2 mi West 8.1 mph - N/A   Mostly Cloudy
12:00 PM 86.0 °F 93.4 °F 73.4 °F 66% 29.71 in 6.2 mi West 8.1 mph - N/A   Mostly Cloudy
12:30 PM 86.0 °F 93.4 °F 73.4 °F 66% 29.68 in 6.2 mi West 9.2 mph - N/A   Mostly Cloudy
1:00 PM 87.8 °F 95.6 °F 73.4 °F 62% 29.68 in 6.2 mi West 12.7 mph - N/A   Mostly Cloudy
1:30 PM 86.0 °F 91.8 °F 71.6 °F 62% 29.65 in 6.2 mi West 11.5 mph - N/A   Mostly Cloudy
2:00 PM 86.0 °F 93.4 °F 73.4 °F 66% 29.65 in 6.2 mi WNW 9.2 mph - N/A   Mostly Cloudy
2:30 PM 86.0 °F 93.4 °F 73.4 °F 66% 29.65 in 6.2 mi West 10.4 mph - N/A   Mostly Cloudy
3:00 PM 86.0 °F 93.4 °F 73.4 °F 66% 29.62 in 6.2 mi WNW 6.9 mph - N/A   Mostly Cloudy
3:30 PM 82.4 °F 87.2 °F 71.6 °F 70% 29.62 in 2.5 mi West 18.4 mph - N/A Rain Rain
4:00 PM 80.6 °F 85.4 °F 73.4 °F 79% 29.62 in 6.2 mi West 6.9 mph - N/A   Mostly Cloudy
4:30 PM 80.6 °F 85.4 °F 73.4 °F 79% 29.62 in 6.2 mi West 6.9 mph - N/A   Mostly Cloudy
5:00 PM 80.6 °F 85.4 °F 73.4 °F 79% 29.62 in 6.2 mi West 5.8 mph - N/A   Mostly Cloudy
5:30 PM 80.6 °F 85.4 °F 73.4 °F 79% 29.62 in 6.2 mi West 5.8 mph - N/A   Mostly Cloudy
6:00 PM 80.6 °F 84.6 °F 71.6 °F 74% 29.62 in 6.2 mi West 9.2 mph - N/A   Mostly Cloudy
6:30 PM 80.6 °F 84.6 °F 71.6 °F 74% 29.65 in 5.6 mi West 8.1 mph - N/A Rain Light Rain
7:00 PM 78.8 °F - 71.6 °F 78% 29.65 in 5.6 mi West 4.6 mph - N/A Rain Light Rain
7:30 PM 78.8 °F - 73.4 °F 83% 29.68 in 5.6 mi NW 3.5 mph - N/A Rain Light Rain
8:00 PM 78.8 °F - 73.4 °F 83% 29.68 in 5.6 mi West 5.8 mph - N/A Rain Light Rain
8:30 PM 78.8 °F - 73.4 °F 83% 29.68 in 5.6 mi WSW 5.8 mph - N/A   Mostly Cloudy
9:00 PM 78.8 °F - 73.4 °F 83% 29.68 in 5.6 mi WSW 6.9 mph - N/A   Mostly Cloudy
9:30 PM 78.8 °F - 73.4 °F 83% 29.71 in 5.6 mi SW 6.9 mph - N/A   Mostly Cloudy
10:00 PM 78.8 °F - 73.4 °F 83% 29.71 in 5.6 mi WSW 6.9 mph - N/A   Mostly Cloudy
10:30 PM 78.8 °F - 75.2 °F 89% 29.68 in 5.6 mi WSW 6.9 mph - N/A   Mostly Cloudy
11:00 PM 78.8 °F - 75.2 °F 89% 29.68 in 5.6 mi WSW 9.2 mph - N/A   Mostly Cloudy
11:30 PM 78.8 °F - 75.2 °F 89% 29.68 in 5.6 mi West 10.4 mph - N/A   Mostly Cloudy